Weather History for Paynesville, MN

Change the Weather History Date:

Sunday, July 21, 2013

  Actual Average (KLJF) Record (KLJF)
Temperature  
Mean Temperature 70 °F -  
Max Temperature 80 °F 83 °F 94 °F (1960)
Min Temperature 60 °F 61 °F 52 °F (1958)
Cooling Degree Days 5    
Growing Degree Days 20 (Base 50)    
Moisture  
Dew Point 60 °F    
Average Humidity 71    
Maximum Humidity 90    
Minimum Humidity 54    
Precipitation  
Precipitation 0.00 in - - ()
Sea Level Pressure  
Sea Level Pressure 29.89 in    
Wind  
Wind Speed 5 mph (ESE)    
Max Wind Speed 10 mph    
Max Gust Speed 16 mph    
Visibility 9 miles    
Events Rain    
Averages and records for this station are not official NWS values.
T = Trace of Precipitation, MM = Missing Value Source: NWS Daily Summary

Daily Weather History Graph

Daily Weather History Graph

Search for Another Location

Airport:

Trip Planner

Search our weather history database for the weather conditions in past years. The results will help you decide how hot, cold, wet, or windy it might be!

Date:

Astronomy

Jul. 21, 2013 Rise Set
Actual Time 5:51 AM CDT 8:58 PM CDT
Civil Twilight 5:15 AM CDT 9:34 PM CDT
Nautical Twilight 4:30 AM CDT 10:19 PM CDT
Astronomical Twilight 3:34 AM CDT 11:15 PM CDT
Moon 7:55 PM CDT (7/21) 4:39 AM CDT (7/21)
Length of Visible Light 16h 18m
Length of Day
15h 07m
Waxing Gibbous, 98% of the Moon is Illuminated
Jul 21
Waxing Gibbous
Jul 22
Full
Jul 29
Last Quarter
Aug 6
New
Aug 14
First Quarter

Hourly Weather History & Observations

Time (CDT) Temp. Heat Index Dew Point Humidity Pressure Visibility Wind Dir Wind Speed Gust Speed Precip Events Conditions
12:13 AM 66.7 °F - 55.6 °F 67% 29.96 in 7.0 mi East 4.6 mph - N/A   Scattered Clouds
12:33 AM 66.2 °F - 55.8 °F 69% 29.97 in 7.0 mi East 3.5 mph - N/A   Scattered Clouds
12:53 AM 66.4 °F - 56.3 °F 70% 29.96 in 7.0 mi ENE 4.6 mph - N/A   Mostly Cloudy
1:13 AM 65.5 °F - 56.3 °F 72% 29.95 in 7.0 mi ENE 3.5 mph - N/A   Scattered Clouds
1:32 AM 65.1 °F - 56.3 °F 73% 29.95 in 7.0 mi East 3.5 mph - N/A   Clear
1:53 AM 65.3 °F - 56.3 °F 73% 29.95 in 10.0 mi East 3.5 mph - N/A   Scattered Clouds
2:13 AM 65.3 °F - 56.5 °F 73% 29.95 in 7.0 mi East 4.6 mph - N/A   Mostly Cloudy
2:33 AM 64.9 °F - 57.0 °F 75% 29.94 in 7.0 mi East 4.6 mph - N/A   Scattered Clouds
2:52 AM 64.4 °F - 57.2 °F 77% 29.94 in 7.0 mi East 3.5 mph - N/A   Scattered Clouds
3:13 AM 63.9 °F - 57.4 °F 79% 29.94 in 5.0 mi East 3.5 mph - N/A   Haze
3:33 AM 63.1 °F - 57.7 °F 83% 29.93 in 7.0 mi ENE 3.5 mph - N/A   Scattered Clouds
3:52 AM 61.5 °F - 57.7 °F 87% 29.93 in 7.0 mi NE 4.6 mph - N/A   Clear
4:13 AM 61.2 °F - 57.7 °F 88% 29.94 in 7.0 mi Calm Calm - N/A   Clear
4:33 AM 61.0 °F - 58.1 °F 90% 29.93 in 7.0 mi Calm Calm - N/A   Scattered Clouds
4:52 AM 61.7 °F - 57.6 °F 86% 29.93 in 10.0 mi ENE 6.9 mph - N/A   Scattered Clouds
5:13 AM 61.9 °F - 57.6 °F 86% 29.93 in 10.0 mi East 3.5 mph - N/A Rain Light Rain
5:33 AM 61.3 °F - 57.4 °F 87% 29.93 in 10.0 mi ENE 3.5 mph - N/A Rain Light Rain
5:53 AM 61.5 °F - 56.7 °F 84% 29.93 in 10.0 mi East 5.8 mph - N/A Rain Rain
6:12 AM 61.2 °F - 56.3 °F 84% 29.93 in 7.0 mi ENE 5.8 mph - N/A Rain Rain
6:33 AM 61.0 °F - 56.3 °F 85% 29.94 in 7.0 mi ESE 4.6 mph - N/A Rain Heavy Rain
6:53 AM 60.3 °F - 55.8 °F 85% 29.94 in 7.0 mi ESE 3.5 mph - N/A Rain Heavy Rain
7:13 AM 60.8 °F - 55.4 °F 82% 29.93 in 10.0 mi East 5.8 mph - N/A Rain Rain
7:33 AM 61.7 °F - 54.7 °F 78% 29.93 in 10.0 mi East 4.6 mph - N/A Rain Rain
7:52 AM 61.9 °F - 54.5 °F 77% 29.93 in 10.0 mi East 5.8 mph - N/A Rain Rain
8:13 AM 62.2 °F - 54.1 °F 75% 29.94 in 10.0 mi East 5.8 mph - N/A Rain Rain
8:33 AM 62.8 °F - 54.1 °F 73% 29.94 in 10.0 mi East 8.1 mph - N/A Rain Rain
8:53 AM 63.5 °F - 54.1 °F 72% 29.94 in 10.0 mi East 8.1 mph - N/A Rain Rain
9:12 AM 63.9 °F - 54.1 °F 71% 29.93 in 10.0 mi East 6.9 mph - N/A Rain Light Rain
9:33 AM 64.8 °F - 54.5 °F 69% 29.93 in 10.0 mi ESE 6.9 mph - N/A   Mostly Cloudy
9:52 AM 65.1 °F - 55.4 °F 71% 29.93 in 10.0 mi ESE 4.6 mph - N/A   Scattered Clouds
10:13 AM 67.1 °F - 56.7 °F 69% 29.93 in 10.0 mi ESE 5.8 mph - N/A   Mostly Cloudy
10:33 AM 67.1 °F - 57.4 °F 71% 29.93 in 10.0 mi East 3.5 mph - N/A   Overcast
10:53 AM 68.4 °F - 57.9 °F 69% 29.93 in 10.0 mi ESE 5.8 mph - N/A   Overcast
11:13 AM 70.0 °F - 58.6 °F 67% 29.92 in 10.0 mi ENE 6.9 mph - N/A   Mostly Cloudy
11:33 AM 72.1 °F - 59.4 °F 64% 29.91 in 10.0 mi East 4.6 mph - N/A   Scattered Clouds
11:53 AM 73.6 °F - 60.1 °F 63% 29.91 in 10.0 mi East 6.9 mph - N/A   Clear
12:13 PM 74.1 °F - 60.6 °F 63% 29.91 in 7.0 mi East 8.1 mph - N/A   Scattered Clouds
12:33 PM 73.4 °F - 61.2 °F 65% 29.91 in 10.0 mi East 8.1 mph - N/A   Mostly Cloudy
12:53 PM 75.0 °F - 61.5 °F 63% 29.90 in 10.0 mi East 6.9 mph - N/A   Overcast
1:13 PM 75.6 °F - 62.2 °F 63% 29.89 in 10.0 mi East 9.2 mph - N/A   Scattered Clouds
1:33 PM 77.5 °F - 62.1 °F 59% 29.89 in 10.0 mi ESE 8.1 mph - N/A   Scattered Clouds
1:53 PM 77.4 °F - 62.2 °F 59% 29.89 in 7.0 mi East 8.1 mph - N/A   Scattered Clouds
2:13 PM 77.7 °F - 62.2 °F 59% 29.88 in 10.0 mi ESE 6.9 mph 16.1 mph N/A   Clear
2:33 PM 78.3 °F - 62.8 °F 59% 29.87 in 10.0 mi SSE 10.4 mph - N/A   Clear
2:53 PM 78.8 °F - 62.8 °F 58% 29.87 in 10.0 mi SE 6.9 mph - N/A   Clear
3:13 PM 79.2 °F - 63.3 °F 58% 29.86 in 5.0 mi SE 8.1 mph - N/A   Haze
3:32 PM 80.2 °F 81.5 °F 63.0 °F 55% 29.86 in 7.0 mi SE 5.8 mph - N/A   Scattered Clouds
3:53 PM 79.2 °F - 63.0 °F 57% 29.85 in 7.0 mi SSE 6.9 mph - N/A   Scattered Clouds
4:13 PM 79.3 °F - 63.5 °F 58% 29.85 in 7.0 mi SE 6.9 mph - N/A   Scattered Clouds
4:33 PM 80.4 °F 81.7 °F 63.1 °F 55% 29.85 in 10.0 mi SE 8.1 mph - N/A   Clear
4:53 PM 80.2 °F 81.6 °F 63.1 °F 56% 29.84 in 10.0 mi ESE 6.9 mph - N/A   Clear
5:13 PM 80.1 °F 81.4 °F 62.8 °F 55% 29.84 in 7.0 mi ESE 8.1 mph - N/A   Clear
5:32 PM 80.6 °F 81.8 °F 62.6 °F 54% 29.83 in 10.0 mi ESE 8.1 mph - N/A   Clear
5:53 PM 79.9 °F - 63.0 °F 56% 29.83 in 10.0 mi SE 8.1 mph - N/A   Clear
6:13 PM 80.1 °F 81.5 °F 63.1 °F 56% 29.82 in 10.0 mi SSE 6.9 mph - N/A   Clear
6:32 PM 80.6 °F 81.9 °F 63.3 °F 55% 29.81 in 10.0 mi ESE 8.1 mph - N/A   Clear
6:53 PM 79.9 °F - 64.4 °F 59% 29.80 in 10.0 mi SE 9.2 mph - N/A   Scattered Clouds
7:13 PM 79.2 °F - 65.1 °F 62% 29.80 in 10.0 mi ESE 8.1 mph - N/A   Scattered Clouds
7:32 PM 78.8 °F - 65.5 °F 64% 29.80 in 7.0 mi ESE 9.2 mph - N/A   Clear
7:53 PM 77.9 °F - 65.3 °F 65% 29.82 in 10.0 mi ESE 5.8 mph - N/A   Clear
8:13 PM 77.0 °F - 65.3 °F 67% 29.83 in 7.0 mi ESE 5.8 mph - N/A   Clear
8:32 PM 76.1 °F - 65.7 °F 70% 29.82 in 10.0 mi ESE 4.6 mph - N/A   Scattered Clouds
8:53 PM 75.2 °F - 65.7 °F 72% 29.81 in 10.0 mi ESE 6.9 mph - N/A   Scattered Clouds
9:13 PM 74.8 °F - 65.7 °F 73% 29.81 in 10.0 mi SE 6.9 mph - N/A   Clear
9:33 PM 74.3 °F - 65.8 °F 75% 29.81 in 10.0 mi SE 6.9 mph - N/A   Clear
9:53 PM 73.8 °F - 66.2 °F 77% 29.81 in 10.0 mi SE 8.1 mph - N/A   Clear
10:12 PM 73.6 °F - 66.2 °F 78% 29.80 in 10.0 mi SE 6.9 mph - N/A   Clear
10:33 PM 73.4 °F - 66.4 °F 79% 29.80 in 7.0 mi SE 8.1 mph - N/A   Clear
10:53 PM 72.9 °F - 66.7 °F 81% 29.79 in 10.0 mi SE 5.8 mph - N/A   Clear
11:13 PM 72.5 °F - 66.7 °F 82% 29.78 in 10.0 mi SE 8.1 mph - N/A   Clear
11:33 PM 72.0 °F - 67.1 °F 85% 29.79 in 10.0 mi SE 8.1 mph - N/A   Clear
11:52 PM 71.6 °F - 67.1 °F 86% 29.79 in 10.0 mi SSE 9.2 mph - N/A   Clear